logo tempoitalia

Diretta Meteo Colonia-Bonn, Germanialunedì 31 agosto ore 07:20

Mappa
Sereno 15 °C Sereno 24 Ore: T.min 15 T.max 24
Ponente Sud Km/h 13 Punto di rugiada: 14 °C Umidità: 93% Visibilità: 10 Km
Il sole sorge alle: 06:43 Il sole tramonta alle: 20:19
31 Agosto 2026 07:20 tempo osservato: Sereno Sereno 15 93 1012 vento: Nord S 13
31 Agosto 2026 06:50 tempo osservato: Sereno Sereno 16 87 1012 vento: Nord S 13
31 Agosto 2026 06:20 tempo osservato: Sereno Sereno 16 93 1011 vento: Nord S 13
31 Agosto 2026 05:50 tempo osservato: Sereno Sereno 16 93 1011 vento: Nord S/SE 13
31 Agosto 2026 05:20 tempo osservato: Sereno Sereno 16 93 1011 vento: Nord S/SE 9.3
31 Agosto 2026 04:50 tempo osservato: Pioggia Pioggia 17 93 1011 vento: Nord S 11.1
31 Agosto 2026 04:20 tempo osservato: Pioggia Pioggia 18 82 1011 vento: Nord S 13
31 Agosto 2026 03:50 tempo osservato: Sereno Sereno 18 77 1011 vento: Nord S/SE 14.8
31 Agosto 2026 03:20 tempo osservato: Sereno Sereno 18 72 1011 vento: Nord S/SE 13
31 Agosto 2026 02:50 tempo osservato: Sereno Sereno 18 72 1011 vento: Nord S 13
31 Agosto 2026 02:20 tempo osservato: Sereno Sereno 18 72 1011 vento: Nord SE 14.8
31 Agosto 2026 01:50 tempo osservato: Sereno Sereno 19 63 1011 vento: Nord SE 13
31 Agosto 2026 01:20 tempo osservato: Sereno Sereno 18 72 1011 vento: Nord SE 13
31 Agosto 2026 00:50 tempo osservato: Sereno Sereno 18 72 1011 vento: Nord SE 14.8
31 Agosto 2026 00:20 tempo osservato: Sereno Sereno 18 72 1012 vento: Nord SE 13
30 Agosto 2026 23:50 tempo osservato: Sereno Sereno 18 72 1012 vento: Nord SE 14.8
30 Agosto 2026 23:20 tempo osservato: Sereno Sereno 19 68 1012 vento: Nord SE 9.3
30 Agosto 2026 22:50 tempo osservato: Sereno Sereno 20 64 1012 vento: Nord SE 9.3
30 Agosto 2026 22:20 tempo osservato: Sereno Sereno 19 68 1012 vento: Nord SE 9.3
30 Agosto 2026 21:50 tempo osservato: Sereno Sereno 19 68 1012 vento: Nord SE 9.3
30 Agosto 2026 21:20 tempo osservato: Sereno Sereno 19 68 1012 vento: Nord SE 7.4
30 Agosto 2026 20:50 tempo osservato: Sereno Sereno 19 68 1012 vento: Nord N 5.5
30 Agosto 2026 20:20 tempo osservato: Sereno Sereno 21 60 1012 vento: Nord SO 7.4
30 Agosto 2026 19:50 tempo osservato: Sereno Sereno 22 53 1013 vento: Nord SO 9.3
30 Agosto 2026 19:20 tempo osservato: Sereno Sereno 22 53 1013 vento: Nord SO 13
30 Agosto 2026 18:50 tempo osservato: Sereno Sereno 23 53 1013 vento: Nord SO 13
30 Agosto 2026 18:20 tempo osservato: Sereno Sereno 23 53 1013 vento: Nord O/SO 14.8
30 Agosto 2026 17:50 tempo osservato: Sereno Sereno 24 47 1013 vento: Nord O/SO 13
30 Agosto 2026 17:20 tempo osservato: Sereno Sereno 24 47 1013 vento: Nord O/SO 18.5
30 Agosto 2026 16:50 tempo osservato: Sereno Sereno 24 47 1013 vento: Nord O/SO 20.3
30 Agosto 2026 16:20 tempo osservato: Sereno Sereno 24 47 1013 vento: Nord O/SO 22.2
30 Agosto 2026 15:50 tempo osservato: Sereno Sereno 24 50 1013 vento: Nord S/SO 20.3
30 Agosto 2026 15:20 tempo osservato: Sereno Sereno 24 47 1013 vento: Nord O/SO 20.3
30 Agosto 2026 14:50 tempo osservato: Sereno Sereno 24 50 1013 vento: Nord O/SO 18.5
30 Agosto 2026 14:20 tempo osservato: Sereno Sereno 24 50 1013 vento: Nord O/SO 20.3
30 Agosto 2026 13:50 tempo osservato: Nuvoloso Nuvoloso 23 53 1013 vento: Nord O/SO 18.5
30 Agosto 2026 13:20 tempo osservato: Sereno Sereno 23 53 1013 vento: Nord O 18.5
30 Agosto 2026 12:50 tempo osservato: Sereno Sereno 22 56 1013 vento: Nord O 22.2
30 Agosto 2026 12:20 tempo osservato: Nuvoloso Nuvoloso 22 56 1013 vento: Nord O/SO 22.2
30 Agosto 2026 11:50 tempo osservato: Molto Nuvoloso Molto Nuvoloso 21 60 1013 vento: Nord O/SO 18.5
30 Agosto 2026 11:20 tempo osservato: Molto Nuvoloso Molto Nuvoloso 21 60 1013 vento: Nord O/SO 22.2
30 Agosto 2026 10:50 tempo osservato: Coperto Coperto 20 64 1013 vento: Nord SO 27.8
30 Agosto 2026 10:20 tempo osservato: Molto Nuvoloso Molto Nuvoloso 20 64 1012 vento: Nord SO 25.9
30 Agosto 2026 09:50 tempo osservato: Poco Nuvoloso Poco Nuvoloso 20 64 1012 vento: Nord SO 18.5
30 Agosto 2026 09:20 tempo osservato: Sereno Sereno 20 64 1012 vento: Nord SO 25.9
30 Agosto 2026 08:50 tempo osservato: Sereno Sereno 19 68 1012 vento: Nord SO 22.2
30 Agosto 2026 08:20 tempo osservato: Sereno Sereno 19 68 1012 vento: Nord SO 20.3
30 Agosto 2026 07:50 tempo osservato: Sereno Sereno 19 72 1011 vento: Nord S 11.1